Regional Weather Roundup
Issued by NWS

Home | Current Version | Previous Version | Graphics & Text | Print | Product List | Glossary On
Versions: 1 2 3 4 5 6 7 8 9 10 11 12 13 14 15 16 17 18 19 20 21 22 23 24 25 26 27 28 29 30 31 32 33 34 35 36 37 38 39 40 41 42 43 44 45 46 47 48 49 50
000
ASUS43 KDMX 271804
RWRIA

WEATHER ROUNDUP FOR IOWA
NATIONAL WEATHER SERVICE DES MOINES IA
  ISSUED BY NWS QUAD CITIES IA IL
100 PM CDT FRI MAR 27 2015

NOTE: "FAIR" INDICATES FEW OR NO CLOUDS BELOW 12,000 FEET WITH NO
SIGNIFICANT WEATHER AND/OR OBSTRUCTIONS TO VISIBILITY.

* - THESE STATIONS ARE NOT NWS STATIONS...THUS NOT UNDER NWS
QUALITY CONTROL.  THEY ALSO DO NOT REPORT WEATHER SUCH
AS PRECIPITATION OR FOG.

IAZ001>003-012>014-020>022-031>034-043>046-271900-
   NORTHWEST IOWA

CITY           SKY/WX    TMP DP  RH WIND       PRES   REMARKS
CARROLL *      SUNNY     34   9  35 CALM      30.23F
CHEROKEE *     PTCLDY    35  10  36 SW5       30.23F WCI  30
6HR MIN TEMP:  16; 6HR MAX TEMP:  35;

DENNISON *     MOSUNNY   34  10  37 VRB3      30.21F
LE MARS *      PTSUNNY   32  10  40 S6        30.23F WCI  26
ORANGE CITY *  PTSUNNY   34   9  35 S3        30.21F
SHELDON *      MOSUNNY   32   9  37 S7        30.20F WCI  26
SIOUX CITY     MOSUNNY   35  11  36 VRB5      30.24F WCI  31
6HR MIN TEMP:  18; 6HR MAX TEMP:  35;

SPENCER        SUNNY     34  10  37 VRB6      30.22F WCI  29
6HR MIN TEMP:  15; 6HR MAX TEMP:  34;

STORM LAKE *   SUNNY     32   9  37 VRB5      30.22F WCI  27
$$

IAZ055>058-069>071-079>083-090>094-271900-
   SOUTHWEST IOWA

CITY           SKY/WX    TMP DP  RH WIND       PRES   REMARKS
ATLANTIC *     SUNNY     36  12  38 VRB3      30.25F
AUDUBON *      SUNNY     36   9  32 N5        30.24F WCI  32
CLARINDA *     SUNNY     36  19  51 N8        30.28F WCI  29
COUNCIL BLFS * MOSUNNY   36  14  41 CALM      30.25F
CRESTON *      SUNNY     36  16  44 NE9       30.24F WCI  29
HARLAN *       MOSUNNY   36  14  41 CALM      30.27F
LAMONI         SUNNY     39  15  37 N6        30.23F WCI  35
6HR MIN TEMP:  24; 6HR MAX TEMP:  39;

RED OAK *      SUNNY     36  18  48 VRB3G13   30.26F
SHENANDOAH *   SUNNY     36  16  44 VRB5      30.28F WCI  32
$$

IAZ047>049-059>061-072>074-084-271900-
   CENTRAL IOWA

CITY           SKY/WX    TMP DP  RH WIND       PRES   REMARKS
AMES           SUNNY     36   8  31 CALM      30.24F
6HR MIN TEMP:  22; 6HR MAX TEMP:  36;

ANKENY *       SUNNY     36   9  32 NE12      30.24F WCI  27
BOONE *        SUNNY     34  10  37 NW8       30.22F WCI  27
CHARITON *     SUNNY     36  12  38 N8G16     30.23F WCI  29
DES MOINES     PTSUNNY   39   9  29 VRB5      30.25F WCI  36
6HR MIN TEMP:  26; 6HR MAX TEMP:  39;

GRINNELL *     CLEAR     35   9  33 NW6       30.23F WCI  30
6HR MIN TEMP:  21; 6HR MAX TEMP:  35;

KNOXVILLE *    SUNNY     36   9  32 N8G15     30.22F WCI  29
MARSHALLTOWN   SUNNY     33  11  39 VRB3      30.23F
6HR MIN TEMP:  22; 6HR MAX TEMP:  34;

NEWTON *       SUNNY     34   9  35 N10       30.24F WCI  26
PELLA *        SUNNY     37  14  38 NW9G18    30.25F WCI  30
6HR MIN TEMP:  24; 6HR MAX TEMP:  37;

PERRY *        FAIR      36  10  33 N5        30.24F WCI  32
6HR MIN TEMP:  20; 6HR MAX TEMP:  36;

$$

IAZ004>006-015-016-023>025-035-036-271900-
   NORTH CENTRAL IOWA

CITY           SKY/WX    TMP DP  RH WIND       PRES   REMARKS
ALGONA *       SUNNY     32   9  37 CALM      30.24S
CLARION *      SUNNY     32  12  43 N8        30.23F WCI  25
ESTHERVILLE    MOSUNNY   30  11  45 CALM      30.21F
6HR MIN TEMP:  16; 6HR MAX TEMP:  31;

FORT DODGE *   SUNNY     34  12  40 E3        30.24F
6HR MIN TEMP:  19; 6HR MAX TEMP:  34;

MASON CITY     SUNNY     31   9  39 CALM      30.24F
6HR MIN TEMP:  16; 6HR MAX TEMP:  33;

FOREST CITY *  FAIR      32   9  37 N3        30.22F
WEBSTER CITY * SUNNY     34  10  37 CALM      30.22F
IOWA FALLS *   FAIR      33  11  39 N8        30.24F WCI  26
6HR MIN TEMP:  22; 6HR MAX TEMP:  34;

$$

IAZ007>011-017>019-026>030-037>042-050>054-066-271900-
   NORTHEAST IOWA

CITY           SKY/WX    TMP DP  RH WIND       PRES   REMARKS
CEDAR RAPIDS   SUNNY     32   8  36 VRB6      30.22F WCI  26
6HR MIN TEMP:  23; 6HR MAX TEMP:  33;

CHARLES CITY * SUNNY     28  10  47 VRB6G13   30.24F WCI  22
CLINTON *      SUNNY     32  10  40 N13       30.24F WCI  22
6HR MIN TEMP:  21; 6HR MAX TEMP:  32;

DECORAH *      SUNNY     27   9  46 N7G16     30.22F WCI  19
DUBUQUE        SUNNY     30   8  39 N10G20    30.20F WCI  21
6HR MIN TEMP:  19; 6HR MAX TEMP:  31;

MONTICELLO *   SUNNY     32   9  37 N10G18    30.22F WCI  24
OELWEIN *      SUNNY     30  10  43 N12       30.23F WCI  21
WATERLOO       SUNNY     34   7  32 N8        30.23F WCI  27
6HR MIN TEMP:  19; 6HR MAX TEMP:  34;

$$

IAZ064-065-067-068-078-271900-
   EAST CENTRAL IOWA

CITY           SKY/WX    TMP DP  RH WIND       PRES   REMARKS
DAVENPORT      SUNNY     33  10  38 N8        30.23S WCI  26
6HR MIN TEMP:  23; 6HR MAX TEMP:  33;

IOWA CITY      SUNNY     34   7  32 NE6       30.25F WCI  29
6HR MIN TEMP:  26; 6HR MAX TEMP:  35;

MT. PLEASANT * SUNNY     35  10  35 NW12G18   30.23S WCI  27
6HR MIN TEMP:  27; 6HR MAX TEMP:  35;

MUSCATINE *    SUNNY     34   5  29 VRB7G17   30.24F WCI  28
QUAD CITIES    SUNNY     34   9  35 NW15G21   30.22F WCI  24
6HR MIN TEMP:  26; 6HR MAX TEMP:  34;

$$

IAZ062-063-075>077-085>089-095>099-271900-
   SOUTHEAST IOWA

CITY           SKY/WX    TMP DP  RH WIND       PRES   REMARKS
BURLINGTON     SUNNY     36  11  35 NW13G20   30.21F WCI  27
6HR MIN TEMP:  30; 6HR MAX TEMP:  36;

FAIRFIELD *    SUNNY     36   7  30 N15       30.23S WCI  26
FORT MADISON * SUNNY     36  14  41 N10G17    30.22S WCI  28
KEOKUK *       MOSUNNY   37  14  38 VRB5G20   30.21S WCI  34
OSKALOOSA *    FAIR      35   7  31 N6G20     30.24F WCI  30
6HR MIN TEMP:  24; 6HR MAX TEMP:  35;

CENTERVILLE *  FAIR      37  14  38 NW10G17   30.24S WCI  30
OTTUMWA        SUNNY     36  10  34 VRB7G20   30.23R WCI  30
6HR MIN TEMP:  24; 6HR MAX TEMP:  38;

WASHINGTON *   SUNNY     36   7  30 N10G20    30.23F WCI  28
$$

ABBREVIATIONS USED IN REMARKS
   TC - TEMPERATURES IN CELSIUS
  WCI - WIND CHILL INDEX
   HX - HEAT INDEX
  VSB - VISIBILITY
$$



USA.gov is the U.S. government's official web portal to all federal, state and local government web resources and services.